Terug naar catalogus

BREEZE-M DEB

TANK

ActiefHEO
NORAD 37871·DEBRIS·🇷🇺 Russia

Gelanceerd Nov 4, 2011 vanaf Baikonur Cosmodrome

Loading…

Volgende Passages (komende 24 uur)

TLE

VersSource: Space-Track

Epoch: Sep 13, 2026, 22:28 UTC

1 37871U 11064E   26256.93621543  .00001479  00000-0  64301-3 0  9990
2 37871  52.5219  94.0017 5704990 165.2461 223.2091  4.43431655234960

Volg BREEZE-M DEB in realtime met AllMySat

Download on the App Store